[[{"header":{"parameterUnit":"m.s-1","parameterCategory":1,"la1":30.2991,"la2":30.254,"lo1":-89.0895,"lo2":-89.0444,"dy":0.0017,"dx":0.0017,"nx":28,"ny":28,"refTime":"2025-03-24T09:00:00:Z","depth":0,"parameterNumber":2,"parameterNumberName":"U-component_of_WINDS"},"data":[0,0,0,0,0,0,0,0,0,0,0,0,0,0,0,0,0,0,0,0,0,0,0,0,0,0,0,0,0,0,0,0,0,0,0,0,0,0,0,0,0,0,0,0,0,0,0,0,0,0,0,0,0,0,0,0,0,0,0.7479,0.7479,0,0.752,0.7521,0.7521,0.7543,0.7543,0.7543,0.7543,0.7586,0.7587,0.7588,0,0,0,0,0,0,0,0,0,0,0,0,0,0.7419,0.742,0.7479,0.7479,0.748,0.752,0.7521,0.7521,0.7543,0.7543,0.7543,0.7543,0.7586,0.7587,0.7588,0,0,0,0,0,0,0,0,0,0,0,0,0,0.7451,0.742,0.7479,0.7496,0.7498,0.752,0.7521,0.7521,0.7543,0.7543,0.7543,0.7543,0.7585,0.7587,0.7588,0.7597,0,0,0.7593,0.7594,0,0,0,0,0,0,0,0,0.7449,0.7453,0.7493,0.7494,0.7497,0.7527,0.7515,0.7547,0.7543,0.7526,0.7543,0.7544,0.7566,0.7569,0.7577,0.7599,0.7601,0.7593,0.7594,0.7595,0.7596,0,0,0,0,0,0,0,0.7447,0.7451,0.7495,0.7493,0.7496,0.7501,0.7506,0.7521,0.7545,0.7527,0.7529,0.7534,0.7567,0.7575,0.7578,0.7601,0.7593,0.7595,0.7596,0.7597,0.7633,0.7633,0,0,0,0,0,0,0.7442,0.7449,0.7494,0.7496,0.7473,0.7502,0.7507,0.7517,0.7545,0.7549,0.7534,0.7535,0.7573,0.7576,0.758,0.7592,0.7595,0.7597,0.7598,0.7633,0.7633,0.7633,0,0,0,0,0,0,0.7441,0.7446,0.7492,0.7473,0.748,0.7503,0.7514,0.7518,0.7526,0.755,0.7554,0.7537,0.7573,0.7577,0.7593,0.7594,0.7597,0.7599,0.7633,0.7633,0.7633,0.7616,0,0,0,0,0,0,0.7439,0.7445,0.7448,0.7473,0.7481,0.7504,0.7514,0.7518,0.7529,0.753,0.7554,0.7559,0.7573,0.759,0.7594,0.7596,0.76,0.7633,0.7633,0.7633,0.7617,0.7616,0.7615,0,0,0,0,0,0.7437,0.7442,0.7448,0.7454,0.7485,0.7504,0.7508,0.7525,0.7529,0.7532,0.7548,0.7558,0.7593,0.7591,0.7596,0.7599,0.7633,0.7633,0.7633,0.7617,0.7616,0.7615,0,0,0,0,0,0,0.7416,0.7445,0.7453,0.7467,0.7483,0.7508,0.7513,0.7523,0.7538,0.7539,0.7559,0.7565,0.7578,0.759,0.7588,0.7609,0.7614,0.7615,0.7601,0.7599,0.7598,0.7595,0.7602,0,0,0,0,0,0.7413,0.7426,0.7451,0.7461,0.7468,0.7489,0.7498,0.751,0.7527,0.7534,0.7551,0.7567,0.7582,0.7591,0.7606,0.7619,0.7625,0.7623,0.7622,0.7621,0.7621,0.7629,0.7629,0.7633,0.7633,0.7633,0,0,0.7408,0.7425,0.7432,0.7457,0.7471,0.7484,0.7495,0.7508,0.7518,0.7536,0.7551,0.7564,0.7584,0.7598,0.7605,0.7608,0.7622,0.7621,0.762,0.7621,0.7629,0.7629,0.7629,0.7633,0.7633,0.7633,0,0,0.7404,0.7418,0.7428,0.7442,0.7463,0.7477,0.7479,0.7503,0.7512,0.7528,0.7542,0.7554,0.7579,0.7593,0.7603,0.7605,0.7615,0.7609,0.7604,0.7611,0.7611,0.7611,0.7611,0.7611,0.761,0.761,0.761,0,0.7394,0.7414,0.7432,0.7444,0.7455,0.7472,0.7482,0.7495,0.7519,0.7527,0.753,0.7562,0.7577,0.7594,0.7595,0.7603,0.7606,0.7606,0.7609,0.7609,0.7609,0.761,0.7611,0.7609,0.7609,0.7609,0.7609,0,0.74,0.7414,0.7419,0.7443,0.7454,0.7466,0.7485,0.7495,0.7506,0.7519,0.7535,0.7554,0.7573,0.7578,0.7588,0.7597,0.7599,0.7605,0.7611,0.7608,0.7609,0.761,0.7608,0.7608,0.7608,0.7609,0,0,0.7384,0.7418,0.742,0.7431,0.7455,0.7466,0.7479,0.7498,0.7505,0.7522,0.7533,0.7554,0.7561,0.7572,0.7585,0.7591,0.7592,0.7597,0.7598,0.7596,0.7603,0.7597,0.7598,0.7599,0.7599,0.7599,0.7601,0,0.7383,0.7406,0.7423,0.7439,0.7452,0.7469,0.748,0.7496,0.751,0.7523,0.7537,0.7552,0.756,0.7567,0.7574,0.759,0.7593,0.759,0.7609,0.7609,0.7603,0.7598,0.7593,0.7594,0.7602,0.7602,0.7602,0,0.7385,0.7402,0.7419,0.7443,0.7449,0.7458,0.7477,0.749,0.7509,0.7518,0.7531,0.7544,0.7558,0.7563,0.7583,0.758,0.7589,0.7598,0.7598,0.7601,0.7605,0.76,0.7595,0.7595,0.7603,0.7603,0.7603,0,0.7372,0.7398,0.7412,0.7421,0.7449,0.7455,0.7468,0.7487,0.7497,0.7514,0.7521,0.7539,0.7549,0.7563,0.758,0.7582,0.7598,0.7604,0.7606,0.7606,0.7609,0.7608,0.7604,0.7614,0.7614,0.7614,0.7614,0,0.7369,0.7379,0.7406,0.7415,0.7427,0.7446,0.7458,0.7471,0.7488,0.75,0.7516,0.7527,0.7549,0.7563,0.7577,0.7591,0.7595,0.7603,0.7607,0.7602,0.7601,0.7608,0.7608,0.7615,0.7615,0.7615,0.7615,0,0.7355,0.7374,0.7391,0.7416,0.7423,0.743,0.7453,0.7462,0.7476,0.7491,0.7495,0.7518,0.7535,0.7554,0.7577,0.7586,0.76,0.7605,0.7593,0.7595,0.7596,0.7596,0.7596,0.7597,0.7607,0.7607,0.7606,0,0.7352,0.736,0.7387,0.7396,0.7408,0.7422,0.7433,0.7453,0.7464,0.7487,0.7493,0.7511,0.7526,0.7553,0.7571,0.7589,0.7595,0.7594,0.7598,0.7592,0.7595,0.7594,0.7595,0.7593,0.7592,0.7592,0.7592,0,0.7345,0.7354,0.7369,0.7387,0.74,0.7416,0.7432,0.7438,0.7461,0.7473,0.749,0.7502,0.7526,0.7544,0.7564,0.7577,0.7588,0.7591,0.7592,0.7587,0.758,0.7584,0.759,0.7591,0.7591,0.7591,0.7591,0.7591,0.7336,0.7344,0.7365,0.7381,0.7396,0.741,0.742,0.7436,0.7451,0.7472,0.7483,0.7501,0.752,0.7549,0.7561,0.7575,0.7579,0.7581,0.7582,0.7582,0.758,0.7578,0.7579,0.7579,0.7579,0.7579,0.7579,0,0.7329,0.7343,0.7358,0.7381,0.7394,0.7404,0.7423,0.7433,0.7448,0.7465,0.7481,0.7501,0.7518,0.7539,0.7558,0.7565,0.7571,0.7569,0.7569,0.7572,0.7576,0.7573,0.7565,0.7565,0.7565,0.7565,0.7565,0.7565,0.7327,0.7342,0.7353,0.7376,0.739,0.7407,0.7417,0.7431,0.7445,0.7467,0.7482,0.7495,0.7514,0.7534,0.7551,0.7557,0.7563,0.756,0.7567,0.757,0.7571,0.7573,0.757,0.7561,0.7561,0.7562,0.7562,0.7562]},{"header":{"parameterUnit":"m.s-1","parameterCategory":1,"la1":30.2991,"la2":30.254,"lo1":-89.0895,"lo2":-89.0444,"dy":0.0017,"dx":0.0017,"nx":28,"ny":28,"refTime":"2025-03-24T09:00:00:Z","depth":0,"parameterNumber":3,"parameterNumberName":"V-component_of_WINDS"},"data":[0,0,0,0,0,0,0,0,0,0,0,0,0,0,0,0,0,0,0,0,0,0,0,0,0,0,0,0,0,0,0,0,0,0,0,0,0,0,0,0,0,0,0,0,0,0,0,0,0,0,0,0,0,0,0,0,0,0,-0.8496,-0.8496,0,-0.8499,-0.8499,-0.8499,-0.8485,-0.8484,-0.8484,-0.8484,-0.8486,-0.8487,-0.8487,0,0,0,0,0,0,0,0,0,0,0,0,0,-0.8479,-0.8479,-0.8496,-0.8496,-0.8496,-0.8499,-0.8499,-0.8499,-0.8485,-0.8484,-0.8484,-0.8483,-0.8486,-0.8487,-0.8487,0,0,0,0,0,0,0,0,0,0,0,0,0,-0.8484,-0.8479,-0.8496,-0.8489,-0.8489,-0.8499,-0.8499,-0.8499,-0.8485,-0.8484,-0.8484,-0.8483,-0.8486,-0.8486,-0.8487,-0.8503,0,0,-0.8489,-0.8489,0,0,0,0,0,0,0,0,-0.8484,-0.8485,-0.849,-0.849,-0.8489,-0.8491,-0.8494,-0.85,-0.8485,-0.8486,-0.8484,-0.8483,-0.8488,-0.8489,-0.849,-0.8503,-0.8503,-0.8489,-0.849,-0.849,-0.849,0,0,0,0,0,0,0,-0.8484,-0.8485,-0.8497,-0.849,-0.849,-0.8486,-0.8486,-0.8495,-0.8491,-0.8486,-0.8485,-0.8486,-0.8488,-0.849,-0.849,-0.8503,-0.8489,-0.849,-0.849,-0.849,-0.8531,-0.8531,0,0,0,0,0,0,-0.8484,-0.8484,-0.8497,-0.8497,-0.8485,-0.8487,-0.8487,-0.8491,-0.849,-0.849,-0.8486,-0.8485,-0.8489,-0.849,-0.849,-0.8509,-0.849,-0.849,-0.8491,-0.853,-0.8531,-0.8531,0,0,0,0,0,0,-0.8484,-0.8485,-0.8497,-0.849,-0.8492,-0.8488,-0.8492,-0.8491,-0.8493,-0.8491,-0.849,-0.8489,-0.8489,-0.8489,-0.85,-0.8509,-0.8491,-0.8491,-0.8529,-0.853,-0.8531,-0.8548,0,0,0,0,0,0,-0.8483,-0.8485,-0.8491,-0.8491,-0.8492,-0.8506,-0.8493,-0.8492,-0.8494,-0.8493,-0.8493,-0.8492,-0.8488,-0.8499,-0.8501,-0.851,-0.8492,-0.8528,-0.853,-0.8531,-0.8546,-0.8549,-0.8552,0,0,0,0,0,-0.8483,-0.8495,-0.8492,-0.8493,-0.8499,-0.8507,-0.8508,-0.8503,-0.8495,-0.8501,-0.85,-0.8492,-0.8508,-0.8501,-0.8502,-0.8512,-0.8528,-0.8529,-0.8531,-0.8545,-0.8549,-0.8552,0,0,0,0,0,0,-0.8497,-0.8495,-0.8491,-0.8504,-0.8506,-0.8505,-0.8512,-0.8506,-0.851,-0.8509,-0.8502,-0.8502,-0.8514,-0.8514,-0.8506,-0.8528,-0.8517,-0.8519,-0.8527,-0.853,-0.8533,-0.8533,-0.8492,0,0,0,0,0,-0.8501,-0.8508,-0.8506,-0.8518,-0.8519,-0.8516,-0.8519,-0.8515,-0.8516,-0.8517,-0.8516,-0.8518,-0.8523,-0.8527,-0.8532,-0.8546,-0.8546,-0.8554,-0.8556,-0.8559,-0.856,-0.8568,-0.8572,-0.8536,-0.8536,-0.8536,0,0,-0.8511,-0.8511,-0.8515,-0.8521,-0.8522,-0.8528,-0.8516,-0.8524,-0.8529,-0.8518,-0.8528,-0.8528,-0.8529,-0.8542,-0.8548,-0.8543,-0.857,-0.856,-0.8562,-0.8563,-0.857,-0.8574,-0.8577,-0.8537,-0.8537,-0.8537,0,0,-0.8532,-0.8532,-0.8542,-0.8544,-0.8546,-0.8543,-0.8546,-0.8546,-0.8545,-0.8556,-0.8548,-0.8554,-0.8563,-0.8565,-0.8567,-0.859,-0.8583,-0.8592,-0.8605,-0.8613,-0.8616,-0.8618,-0.8627,-0.863,-0.8593,-0.8593,-0.8593,0,-0.8543,-0.8553,-0.8548,-0.8556,-0.8559,-0.855,-0.8561,-0.8562,-0.8566,-0.8568,-0.8562,-0.8574,-0.8574,-0.8588,-0.8593,-0.8595,-0.8598,-0.8591,-0.8616,-0.8618,-0.8621,-0.8628,-0.8631,-0.8594,-0.8594,-0.8594,-0.8594,0,-0.8567,-0.8574,-0.8582,-0.8586,-0.859,-0.8599,-0.8596,-0.86,-0.8596,-0.8595,-0.8606,-0.8606,-0.8611,-0.8614,-0.861,-0.8627,-0.8624,-0.8617,-0.8606,-0.8625,-0.8632,-0.8635,-0.8596,-0.8595,-0.8595,-0.8595,0,0,-0.8596,-0.8598,-0.8601,-0.8603,-0.8604,-0.861,-0.8619,-0.8624,-0.8628,-0.8631,-0.8639,-0.8648,-0.8642,-0.8644,-0.864,-0.8647,-0.8666,-0.864,-0.864,-0.8645,-0.8685,-0.869,-0.8694,-0.8662,-0.8662,-0.8663,-0.8685,0,-0.8616,-0.8632,-0.8628,-0.8644,-0.865,-0.8643,-0.8651,-0.8653,-0.8652,-0.8658,-0.8657,-0.8663,-0.8655,-0.8656,-0.8663,-0.8662,-0.8674,-0.8661,-0.8669,-0.8669,-0.8668,-0.8697,-0.8702,-0.8723,-0.8688,-0.8688,-0.8688,0,-0.8642,-0.8646,-0.8662,-0.8664,-0.8667,-0.8674,-0.8679,-0.8685,-0.8687,-0.8686,-0.8689,-0.8685,-0.8694,-0.8683,-0.8696,-0.8687,-0.8691,-0.8691,-0.8691,-0.8692,-0.868,-0.8698,-0.873,-0.8733,-0.8693,-0.8692,-0.8692,0,-0.8661,-0.8671,-0.8682,-0.8684,-0.8686,-0.8692,-0.8693,-0.8695,-0.8699,-0.8703,-0.8705,-0.8711,-0.8714,-0.8718,-0.8715,-0.8707,-0.8729,-0.8717,-0.8728,-0.8728,-0.8732,-0.8732,-0.8764,-0.8735,-0.8735,-0.8735,-0.8735,0,-0.8684,-0.8694,-0.8691,-0.8698,-0.8709,-0.8705,-0.8717,-0.8717,-0.8719,-0.8726,-0.872,-0.8727,-0.8722,-0.8729,-0.8726,-0.8738,-0.8739,-0.8738,-0.8738,-0.8739,-0.8739,-0.8741,-0.8739,-0.8736,-0.8735,-0.8735,-0.8735,0,-0.8707,-0.8705,-0.8717,-0.8719,-0.8719,-0.8728,-0.8729,-0.8735,-0.8735,-0.8744,-0.8745,-0.8744,-0.8751,-0.8749,-0.8757,-0.8755,-0.8769,-0.8767,-0.8768,-0.8768,-0.8778,-0.8777,-0.8813,-0.8817,-0.8785,-0.8785,-0.8786,0,-0.8721,-0.8729,-0.8732,-0.8736,-0.8738,-0.8745,-0.8749,-0.8746,-0.875,-0.8754,-0.8761,-0.8767,-0.8773,-0.8785,-0.8784,-0.879,-0.8788,-0.88,-0.8789,-0.879,-0.8788,-0.8787,-0.8788,-0.8802,-0.8802,-0.8803,-0.8803,0,-0.8747,-0.8746,-0.8752,-0.8759,-0.8764,-0.8768,-0.8772,-0.8776,-0.8773,-0.8778,-0.8786,-0.879,-0.8799,-0.8806,-0.8811,-0.8812,-0.8807,-0.8807,-0.8809,-0.881,-0.8811,-0.8811,-0.8774,-0.8806,-0.8805,-0.8805,-0.8805,-0.8805,-0.8766,-0.8773,-0.8777,-0.8784,-0.8787,-0.8791,-0.8797,-0.8798,-0.8804,-0.8811,-0.8808,-0.8817,-0.882,-0.8828,-0.883,-0.8837,-0.8832,-0.8836,-0.8837,-0.8838,-0.8839,-0.881,-0.8838,-0.8838,-0.8837,-0.8837,-0.8837,0,-0.8792,-0.8794,-0.8801,-0.8807,-0.8813,-0.8808,-0.8813,-0.8818,-0.8826,-0.8829,-0.8835,-0.8844,-0.8851,-0.8852,-0.8858,-0.8864,-0.8862,-0.8866,-0.8865,-0.8865,-0.8843,-0.884,-0.8867,-0.8867,-0.8867,-0.8867,-0.8867,-0.8867,-0.8806,-0.8818,-0.8817,-0.8831,-0.8833,-0.8841,-0.8844,-0.8848,-0.8851,-0.8862,-0.8868,-0.8868,-0.8871,-0.8878,-0.8884,-0.8884,-0.8887,-0.8892,-0.8891,-0.887,-0.8867,-0.8864,-0.8861,-0.8892,-0.8892,-0.8913,-0.8913,-0.8913]}]]